GFSNW_250_spd_153.txt.gz
Wind_Speed
139 137 132 134 134 130 129 126 126 127 126 121 114 111 111 110 110 111 111 111 110 112 110 106 100 92 91 87 85 90 94 96 95 100 99 101 106 104 107 111 110 111 111 104
130 134 139 139 132 129 126 125 122 124 122 120 117 118 114 112 111 112 108 107 105 100 97 92 84 84 89 91 93 95 100 103 99 97 105 107 106 108 111 113 116 112 109 104
121 123 129 130 134 130 126 123 116 111 106 105 103 103 98 96 94 95 98 96 98 99 96 91 83 87 92 93 96 98 100 94 91 88 93 100 98 100 102 107 106 101 96 94
109 114 115 119 119 124 123 121 118 115 113 107 105 106 103 98 96 100 104 98 102 98 86 86 88 92 88 81 81 79 75 70 69 68 69 70 69 71 73 74 75 77 76 74
98 101 100 101 105 106 106 107 110 108 106 107 108 105 105 106 106 102 96 91 91 86 81 78 74 76 71 72 72 68 66 60 57 55 57 53 51 57 60 60 63 65 63 59
85 89 90 92 92 92 88 91 93 93 90 91 90 87 87 91 87 83 83 81 78 76 65 59 68 66 63 60 60 61 56 52 51 43 46 48 42 47 49 52 53 55 50 54
77 81 82 82 83 81 76 77 76 75 70 68 67 75 76 73 72 67 69 65 61 67 53 61 58 52 50 48 50 48 47 46 43 40 40 31 33 35 40 40 39 42 41 42
68 73 73 74 74 70 66 67 65 63 62 60 61 63 61 62 65 60 56 61 57 49 56 50 44 43 44 43 38 38 36 31 29 28 29 28 28 32 32 30 31 31 33 36
63 66 67 66 63 59 57 58 58 55 52 50 53 54 55 55 52 49 50 51 50 47 43 38 42 40 40 35 31 34 32 29 25 28 25 24 30 28 29 25 30 28 31 32
59 60 60 58 54 52 51 50 49 46 45 48 52 51 48 42 41 41 46 41 38 37 37 37 35 32 34 28 31 32 31 29 27 22 20 24 27 27 25 25 25 27 24 20
55 54 53 51 50 48 45 47 42 41 41 47 47 43 38 36 36 38 32 31 34 37 32 26 26 28 25 24 28 26 23 22 20 18 21 22 21 21 20 19 19 19 19 19
53 51 49 47 45 42 42 40 40 39 39 45 44 35 32 34 31 27 25 25 27 25 27 28 24 21 21 23 25 20 21 17 16 18 22 21 19 15 14 11 10 14 16 14
48 48 46 44 42 40 40 40 37 38 40 41 31 34 31 29 27 23 23 25 27 22 16 16 18 20 18 17 17 18 19 18 16 17 21 19 15 13 15 13 11 9 10 13
45 45 43 43 41 41 41 38 37 35 33 32 32 32 30 28 24 25 22 16 12 11 15 18 20 20 19 20 19 19 19 18 16 18 13 9 10 11 12 10 6 8 12 17
43 43 43 42 41 42 40 36 34 34 34 34 32 28 30 24 24 21 14 10 10 9 10 13 15 14 11 13 17 20 17 15 15 12 10 12 13 10 7 5 6 12 18 23
41 42 43 42 42 41 38 33 34 36 36 34 33 33 25 25 21 16 15 12 12 11 9 7 7 7 10 12 10 14 17 17 18 17 15 11 8 6 5 9 13 18 23 26
41 42 43 44 44 41 37 39 40 37 37 37 37 31 28 24 21 21 16 16 16 14 11 10 10 12 14 16 19 20 18 14 11 10 9 6 7 9 12 15 17 20 25 29
42 43 44 43 42 40 42 43 40 40 43 43 36 34 29 27 28 24 22 21 18 16 14 12 12 13 14 14 14 15 14 13 11 11 10 10 14 16 15 17 22 25 25 27
41 41 42 41 41 44 45 44 44 48 47 42 41 37 33 33 31 29 27 24 20 18 15 15 14 15 16 14 12 10 12 13 14 14 13 14 15 16 19 21 22 24 27 29
39 40 41 43 46 47 47 47 52 51 47 44 42 41 39 37 34 31 29 27 23 20 18 17 16 15 11 10 12 15 18 19 17 14 15 16 17 17 19 20 23 25 28 31
37 39 41 44 47 48 47 51 51 51 48 45 44 44 40 39 37 32 29 25 24 23 22 19 16 14 14 13 13 14 15 14 14 15 15 16 15 15 18 20 20 21 25 27
38 40 42 44 46 45 49 53 54 52 48 47 46 44 42 40 40 35 29 26 24 24 22 18 13 13 14 13 13 14 13 12 13 15 15 14 16 16 19 20 22 25 29 30
38 41 43 45 45 48 54 56 53 50 48 48 47 43 41 39 37 35 31 29 28 26 24 19 14 17 19 17 18 17 16 16 15 15 18 19 21 24 26 27 29 31 33 33
33 35 41 44 47 52 58 58 57 54 50 48 46 43 40 39 38 38 35 33 33 29 26 22 19 20 21 20 19 18 19 19 20 20 22 24 25 26 29 31 32 34 35 36
31 36 41 44 49 56 59 57 56 53 48 46 46 43 40 41 43 42 39 38 36 34 30 28 24 23 23 24 23 21 20 22 25 26 26 28 30 31 34 33 33 36 39 40
33 38 43 47 52 56 57 55 54 49 44 44 46 45 45 44 47 46 44 42 40 37 35 33 33 32 31 28 25 25 26 27 29 32 35 37 37 36 37 38 40 41 42 42
36 39 44 50 53 55 56 55 54 49 45 44 41 45 46 46 48 50 47 45 45 43 42 41 40 39 38 37 36 35 35 34 36 39 38 39 39 41 42 42 42 44 44 45

GFSNW_250_spd_156.txt.gz
Wind_Speed
139 137 136 139 137 136 137 136 136 131 128 125 121 121 117 113 118 116 119 118 117 119 118 115 113 111 108 103 105 104 104 102 100 97 91 90 91 89 92 93 94 96 96 94
126 130 131 132 137 136 131 133 130 128 125 120 120 120 120 120 121 121 121 121 119 119 116 112 111 108 109 104 101 103 96 88 89 89 90 94 94 92 94 96 99 98 101 96
115 119 123 128 129 133 133 133 129 125 120 117 119 122 126 123 124 122 123 123 121 118 111 109 104 101 91 85 86 92 90 85 87 84 88 91 89 89 91 93 95 93 95 96
103 107 114 117 119 125 127 128 127 125 124 121 122 119 118 120 119 119 117 113 120 109 95 90 88 82 83 86 89 91 88 85 83 78 79 79 76 74 76 76 76 79 77 79
96 99 103 104 107 111 112 115 115 118 119 117 119 118 117 116 116 113 110 105 100 95 100 94 84 85 88 87 84 86 88 81 73 67 68 64 62 62 62 64 64 63 64 63
87 89 92 95 98 95 98 100 99 108 109 110 108 104 106 107 106 103 102 100 94 92 92 84 83 82 78 78 80 81 78 72 67 62 58 49 51 55 52 51 52 53 48 52
74 79 82 83 84 83 86 86 87 89 92 97 97 97 95 95 95 93 91 87 83 84 77 77 72 69 69 72 72 71 67 64 58 52 47 43 47 49 47 44 44 42 40 42
69 72 72 73 73 74 75 78 76 77 77 77 77 80 78 76 70 67 67 71 65 70 68 66 60 63 66 66 62 61 57 53 45 45 46 42 44 42 39 34 35 31 30 30
65 65 64 64 64 64 65 69 67 65 63 64 68 68 68 68 64 62 63 64 62 62 60 58 54 56 52 51 51 47 42 44 44 45 37 38 37 30 27 25 24 24 23 24
61 61 59 56 55 55 57 59 58 56 51 53 56 56 57 55 55 56 56 54 53 55 54 48 47 44 42 40 40 39 41 39 36 28 28 31 25 24 21 20 20 20 18 16
56 55 53 50 50 49 49 51 48 47 46 53 52 52 50 50 52 51 46 44 45 46 40 40 40 37 34 33 36 33 30 29 23 25 25 25 20 18 18 16 16 13 10 9
50 49 48 46 45 44 45 44 45 46 46 50 50 49 50 47 44 43 39 42 39 36 36 33 31 33 34 33 31 26 22 21 23 23 21 16 12 13 12 11 9 9 10 9
46 46 45 44 42 42 43 44 43 43 46 50 48 53 44 43 46 37 37 36 31 28 25 28 30 31 32 31 29 23 18 18 18 18 15 12 12 11 11 10 12 11 10 12
45 45 43 41 40 42 42 42 42 42 46 47 48 44 40 40 34 35 33 28 25 21 24 25 26 29 29 27 23 22 21 19 18 16 12 11 12 18 17 17 15 12 10 8
46 42 40 40 41 41 40 41 42 44 46 47 43 39 36 35 34 31 29 27 24 29 27 25 21 18 17 20 22 23 21 20 18 16 13 14 15 14 16 13 10 7 6 9
42 42 41 41 41 40 39 39 41 43 43 42 36 35 37 34 31 30 28 24 26 21 17 13 9 9 10 11 13 16 19 19 18 15 15 16 17 15 14 10 7 7 9 13
41 42 42 42 41 40 40 42 42 41 41 38 37 37 34 33 31 30 27 27 24 19 17 14 12 10 10 11 10 11 16 22 23 25 22 19 16 13 9 7 9 11 13 17
41 42 43 43 42 40 41 41 40 42 41 39 37 36 36 35 34 32 31 27 26 25 21 18 15 15 16 18 19 21 24 25 26 24 20 16 13 12 11 11 13 13 16 22
39 41 41 41 41 42 42 43 42 41 40 39 38 38 39 40 37 36 33 32 29 25 23 21 20 19 19 19 20 19 18 18 19 17 16 14 13 13 13 14 16 16 18 21
37 37 39 42 43 43 45 45 44 43 40 38 41 42 43 41 38 37 36 33 29 26 24 22 20 17 17 16 17 17 17 17 18 15 14 15 16 18 18 16 15 16 18 19
36 38 40 42 43 45 46 45 42 39 40 42 45 46 44 42 42 40 36 33 31 28 24 23 19 17 19 18 18 16 16 17 18 19 19 20 19 17 16 15 15 17 18 20
36 38 40 41 43 43 42 41 44 44 44 49 48 50 45 43 42 40 38 36 33 31 27 23 21 20 19 19 18 17 16 17 18 19 18 17 17 17 15 15 17 19 22 24
36 38 40 41 40 38 40 44 46 45 49 52 52 50 46 46 46 43 39 38 36 32 29 26 25 22 20 21 16 14 16 18 18 18 18 18 15 16 17 19 21 23 25 26
34 35 37 37 35 37 41 44 46 50 53 52 51 49 48 48 47 44 42 39 37 34 29 27 27 23 18 17 18 18 20 20 19 18 17 17 17 19 20 23 26 27 27 28
29 31 31 33 37 40 43 46 50 54 55 54 53 50 50 51 50 48 45 41 38 34 30 30 30 26 23 22 23 22 22 21 19 17 17 19 22 24 26 29 31 31 32 34
30 31 32 34 36 39 44 48 52 54 55 54 52 50 50 50 50 51 49 45 41 38 35 34 34 32 28 27 27 27 28 24 22 22 23 25 27 28 30 31 34 35 39 41
30 32 34 35 37 41 47 51 53 54 53 52 49 48 50 50 50 51 49 48 46 43 40 38 38 37 36 34 35 35 33 31 31 32 33 33 35 37 39 41 42 42 45 45

GFSNW_250_spd_162.txt.gz
Wind_Speed
115 119 122 135 133 133 138 141 141 139 138 134 132 125 125 128 120 116 115 116 118 114 116 114 110 110 110 112 112 114 115 115 113 116 117 118 119 118 122 129 128 126 120 104
106 110 116 123 124 130 135 135 133 136 142 141 135 131 129 131 125 119 123 121 121 122 121 120 117 116 116 116 116 120 122 123 122 116 118 125 129 129 130 125 123 109 108 92
97 100 107 113 113 117 125 131 129 126 130 136 134 134 134 130 124 126 127 126 128 125 124 124 121 121 123 122 121 122 125 127 129 127 127 131 129 124 116 115 107 100 91 89
88 92 97 103 103 109 112 115 113 122 120 120 125 128 131 133 132 129 131 133 133 130 128 126 127 128 128 125 125 128 128 127 132 130 129 128 117 104 98 97 93 92 80 73
82 88 90 91 95 102 105 101 101 106 111 113 114 119 124 127 131 135 138 138 136 132 129 129 131 131 129 130 131 132 131 132 132 115 113 107 97 88 87 80 76 72 68 61
74 82 86 89 93 97 96 90 88 86 97 101 104 106 112 114 118 122 125 122 125 128 132 130 130 132 133 130 129 126 121 119 115 100 98 88 76 80 72 67 63 63 55 55
69 75 82 87 89 88 91 87 83 77 84 86 88 93 98 101 104 109 110 110 113 115 111 116 117 115 117 116 112 108 99 96 94 78 76 67 68 64 60 60 59 52 46 45
67 71 76 83 83 85 85 82 77 77 78 76 78 81 84 87 89 92 93 95 97 93 90 93 92 92 89 90 86 83 81 76 71 66 65 57 60 55 57 52 46 47 38 39
65 66 73 76 79 80 79 77 68 71 69 67 70 70 74 77 78 80 82 84 80 79 81 80 77 76 77 71 68 68 66 63 63 63 57 47 53 50 50 40 42 37 31 32
61 64 68 71 73 73 72 64 68 65 62 61 59 62 67 68 70 72 73 71 70 69 67 66 64 64 63 60 61 61 61 59 57 55 49 45 48 41 41 38 35 29 30 29
56 59 64 67 65 64 59 63 60 58 57 55 56 56 56 59 62 64 62 61 56 57 57 57 59 56 55 55 55 56 52 52 53 49 41 38 41 37 34 31 29 28 28 27
52 56 61 57 56 58 54 51 53 52 51 47 50 52 56 56 52 50 50 47 47 46 48 52 51 49 50 49 49 47 48 46 41 38 35 35 36 30 29 27 27 28 26 25
49 51 50 51 52 47 46 49 47 45 45 47 49 51 48 44 46 44 42 45 44 42 45 46 45 45 44 44 45 42 40 36 33 30 33 31 29 29 28 28 29 26 26 24
44 45 47 45 40 41 45 47 46 44 46 46 49 44 44 45 42 42 45 43 40 43 44 43 42 41 41 41 41 35 29 29 30 27 23 27 27 27 27 27 26 24 22 21
42 41 38 34 40 45 47 46 43 44 45 45 45 44 43 44 45 45 45 44 44 43 42 40 39 39 37 37 32 31 26 26 26 26 24 26 26 26 27 26 24 23 21 22
38 36 38 41 43 45 42 40 42 43 43 45 43 42 43 41 41 42 43 43 41 38 39 38 37 38 35 29 28 32 26 28 28 26 27 26 25 27 29 27 27 25 17 14
39 41 42 42 43 41 41 43 43 43 43 42 40 40 40 42 43 42 41 41 40 41 40 36 37 32 24 24 30 33 26 28 30 30 30 28 25 26 29 27 23 17 15 15
38 38 39 39 37 38 41 42 41 41 41 38 37 38 40 41 42 42 42 41 40 36 35 33 30 27 23 24 28 25 23 27 27 29 28 27 23 23 21 17 16 16 17 18
36 37 36 36 38 42 41 38 39 38 36 35 36 38 38 39 39 39 39 38 36 35 30 28 27 24 22 22 21 21 20 19 21 23 24 22 24 21 19 18 19 21 21 20
35 34 34 37 40 36 37 38 38 36 34 35 37 35 38 36 37 37 38 37 33 31 29 28 26 24 19 20 20 17 15 14 12 14 17 21 19 20 22 22 23 23 23 22
32 34 39 39 36 37 37 36 35 35 35 36 34 34 35 35 36 37 36 35 34 29 29 30 27 24 24 23 20 18 16 15 14 15 19 21 23 24 23 24 25 27 25 24
31 32 33 32 35 35 34 34 34 35 34 32 33 34 35 35 36 37 36 34 27 31 34 32 31 30 28 26 24 22 21 20 21 21 23 23 25 26 28 29 29 26 24 23
31 32 32 31 32 32 32 34 35 34 34 33 34 34 35 35 36 35 34 30 31 36 36 36 36 33 32 30 28 28 28 27 25 24 26 28 29 32 32 30 28 25 24 24
26 27 29 30 31 32 33 34 35 34 34 34 36 37 37 38 37 36 33 33 37 41 41 41 41 38 35 35 33 32 31 30 28 27 28 29 28 27 25 25 26 27 27 26
22 22 24 27 31 32 33 34 34 34 35 36 37 37 38 39 38 36 35 40 41 45 47 46 43 42 39 39 36 36 37 32 32 32 30 30 30 29 28 28 28 30 30 29
20 22 24 26 28 30 32 34 35 36 37 37 37 38 40 41 39 39 40 44 49 51 50 50 48 45 43 43 41 41 39 39 37 37 34 31 31 32 33 32 33 33 33 33
24 25 25 27 30 32 33 34 36 39 40 41 41 43 43 43 42 41 45 50 51 53 53 53 50 48 46 46 46 46 44 45 42 41 41 40 38 36 35 35 37 38 38 39

GFSNW_250_spd_165.txt.gz
Wind_Speed
123 123 122 121 122 129 129 130 124 127 129 126 125 121 119 125 128 123 121 120 120 115 117 117 111 108 105 104 102 101 104 101 100 102 107 109 112 109 115 119 119 123 127 126
113 112 113 114 115 118 117 118 122 123 129 126 124 123 122 122 128 124 121 124 123 121 121 122 117 116 113 111 106 105 108 106 106 105 110 116 117 116 117 123 127 127 130 127
104 104 104 103 104 107 111 110 115 115 116 116 119 121 120 121 123 125 126 125 122 119 121 124 118 119 117 119 112 112 113 114 114 110 115 120 120 118 122 127 129 135 131 132
100 99 97 96 96 98 104 105 108 103 102 107 112 117 120 122 121 120 123 125 131 132 126 121 118 119 118 119 115 116 118 118 120 117 119 122 122 123 125 129 133 139 132 124
91 93 88 88 89 92 96 99 99 94 93 96 101 103 106 109 111 114 118 120 125 128 133 133 129 124 119 118 119 120 121 119 122 117 123 127 123 127 129 134 133 132 120 99
81 80 80 77 85 90 87 92 91 88 87 87 86 84 92 97 101 101 106 112 117 118 116 113 116 123 125 127 128 128 126 127 126 121 130 131 119 122 123 118 109 102 90 78
71 72 73 72 77 82 82 84 87 84 80 78 75 72 77 82 87 92 93 95 100 105 103 105 105 107 110 111 111 118 120 124 124 118 116 109 106 99 100 90 87 83 68 68
65 64 65 65 69 74 76 82 79 78 78 75 70 63 66 71 75 78 82 85 88 85 88 94 98 95 94 97 99 101 99 100 101 98 96 87 81 86 79 75 67 65 63 61
59 59 61 62 64 68 71 72 77 73 72 70 67 57 63 65 66 67 67 71 74 73 71 76 78 79 80 84 81 81 81 83 81 79 75 71 75 71 63 60 57 57 52 45
54 56 58 60 61 62 68 72 69 68 67 64 55 54 59 59 58 57 59 62 59 61 62 62 62 64 66 63 67 69 69 70 69 70 63 60 64 55 55 52 53 45 38 40
49 52 55 57 57 60 65 65 63 63 62 58 45 49 53 51 50 52 54 54 51 50 52 52 57 56 58 57 60 61 60 60 62 61 57 54 50 50 45 43 49 34 37 33
44 47 53 54 55 58 61 59 59 59 55 45 46 49 49 47 47 45 46 47 46 46 48 50 50 51 52 52 53 53 54 56 53 51 45 45 45 43 36 33 36 34 30 26
41 46 50 52 52 54 55 55 53 52 42 44 45 46 43 38 41 41 42 42 42 43 43 45 46 47 48 46 48 49 49 47 43 39 42 38 33 37 29 31 30 27 25 23
42 43 44 46 50 51 49 46 44 41 44 41 43 39 36 38 38 41 44 42 41 40 40 39 40 42 41 43 43 43 44 39 36 38 30 31 27 29 25 25 26 25 22 21
39 40 43 44 44 44 42 40 37 40 38 40 42 38 36 35 37 41 42 39 40 37 36 37 39 41 39 40 38 43 39 34 31 33 26 25 22 25 22 24 23 22 22 20
39 39 38 36 36 37 34 26 30 38 40 41 39 38 36 36 38 40 40 41 40 38 38 39 40 40 37 36 36 41 33 29 29 27 27 25 22 25 25 22 23 22 23 24
33 33 33 33 28 27 29 35 41 39 39 40 37 35 33 35 35 37 40 37 37 37 38 40 40 38 31 33 37 37 27 28 28 26 31 27 29 26 21 22 24 26 27 23
31 30 30 31 34 35 35 36 35 36 37 33 32 33 34 35 36 37 38 39 38 37 38 38 39 34 31 30 38 26 26 27 24 25 29 31 29 30 25 25 27 28 24 18
27 28 29 30 31 34 36 34 32 33 32 32 33 34 34 34 36 37 37 38 39 37 37 39 33 31 28 34 27 26 24 22 21 22 25 26 27 27 28 26 22 19 19 20
28 29 32 35 34 30 31 32 33 32 31 34 35 33 35 36 37 37 37 36 36 36 36 31 29 30 25 26 29 23 20 20 18 18 20 20 21 23 25 25 24 23 21 22
31 34 36 32 32 32 30 30 31 30 33 32 30 31 32 33 35 36 34 34 33 33 31 27 25 26 28 28 27 22 20 17 16 14 12 11 13 17 21 22 20 20 21 22
29 27 26 28 28 25 27 29 29 30 31 30 29 31 33 34 34 33 32 31 29 26 25 23 25 31 28 28 26 23 21 20 20 17 14 15 16 17 17 18 20 21 23 25
23 22 21 20 21 27 30 31 29 30 30 29 30 31 31 30 29 30 29 29 26 25 23 24 32 32 29 30 28 28 25 25 24 23 20 20 19 20 21 24 26 27 29 31
16 16 14 17 26 29 30 29 28 29 27 28 30 31 31 30 30 31 29 28 26 25 28 33 37 33 34 34 33 32 31 29 29 28 27 27 28 28 29 31 33 34 35 35
17 19 22 26 29 28 27 28 29 28 28 29 30 30 30 30 31 30 29 28 25 28 35 39 40 41 40 39 38 37 35 33 32 34 34 32 33 33 32 32 34 34 34 33
18 20 21 22 23 25 27 28 28 28 28 29 27 27 28 29 28 29 29 28 32 35 38 42 44 44 44 43 42 41 39 38 38 36 38 38 38 38 38 37 37 37 37 37
18 19 20 23 24 25 27 28 29 29 28 29 29 30 31 31 32 33 35 36 34 34 40 44 47 48 48 48 47 47 45 44 43 41 43 43 44 44 44 45 43 44 44 44

GFSNW_250_spd_168.txt.gz
Wind_Speed
133 135 133 129 127 123 124 119 121 125 126 127 125 123 123 118 114 119 114 114 118 116 117 113 119 117 115 109 107 107 106 107 101 99 103 107 103 100 103 105 103 106 108 98
130 130 131 126 133 132 129 126 126 126 127 125 122 124 124 121 118 118 115 112 113 112 111 114 113 116 115 116 111 108 108 104 103 102 106 110 109 106 110 113 111 109 113 110
136 135 131 131 131 127 126 125 121 122 122 117 118 119 116 116 112 113 112 109 112 117 114 114 114 116 118 118 115 111 114 108 106 105 109 111 112 112 115 115 116 118 117 118
123 121 117 114 112 112 114 115 112 112 110 109 107 110 106 101 99 101 103 100 101 107 109 108 110 111 112 114 114 113 116 112 108 109 111 111 111 110 113 118 118 122 116 120
108 108 107 106 104 104 103 101 102 105 99 100 99 97 88 86 87 89 90 91 93 100 99 97 109 111 112 112 110 110 110 110 116 115 113 111 106 113 114 120 124 127 128 125
101 101 100 99 100 98 95 96 98 99 97 93 87 85 80 79 80 75 76 81 85 87 88 90 94 97 99 100 104 105 107 110 115 118 123 123 120 126 128 126 127 125 117 117
91 91 91 90 91 89 87 86 88 89 89 85 79 76 73 72 69 67 69 72 73 75 77 80 81 82 86 88 88 92 98 100 103 107 110 105 105 104 107 106 106 106 105 98
81 81 82 81 80 79 75 76 79 78 78 81 74 70 68 66 61 59 61 65 62 63 65 65 66 69 72 75 76 80 84 87 89 89 93 93 93 95 93 88 88 90 85 82
75 75 74 73 72 71 68 68 69 72 74 72 68 66 61 60 53 52 57 58 53 52 53 56 56 57 59 62 65 69 72 72 73 77 79 77 82 83 78 74 72 75 72 71
68 68 65 64 64 64 62 62 64 65 65 66 64 58 55 55 45 49 54 54 46 43 44 46 48 50 53 53 56 58 57 59 62 66 64 62 73 67 66 67 64 62 62 56
61 60 56 56 57 58 57 58 58 61 63 61 56 53 52 49 44 50 48 43 40 41 42 43 44 46 48 47 52 52 53 54 55 56 55 57 63 61 59 55 53 54 50 41
54 54 51 50 52 53 52 54 56 56 58 55 50 47 48 40 39 39 40 39 38 39 39 41 43 46 45 46 47 48 47 49 49 52 54 51 54 52 52 48 43 45 40 32
46 45 46 48 49 48 50 51 52 55 53 49 44 41 35 31 37 41 38 35 36 38 38 39 40 42 43 42 45 45 44 47 46 47 50 48 47 44 43 39 35 35 30 25
40 41 40 45 46 46 47 48 50 47 44 39 35 31 30 35 39 37 35 36 36 37 37 38 37 39 41 43 44 42 45 45 43 44 43 39 40 38 38 33 28 31 25 22
35 35 39 44 43 43 44 45 42 39 34 34 30 28 33 35 36 36 36 37 36 35 35 36 37 38 39 38 36 41 42 40 37 38 37 35 35 31 33 29 26 29 21 21
33 36 38 38 38 39 39 34 32 27 29 27 27 34 33 33 36 36 35 35 34 33 35 38 37 40 36 33 36 40 40 31 32 35 34 33 28 27 26 30 25 26 23 20
30 33 34 34 34 32 28 27 28 27 28 31 35 34 31 32 33 34 33 33 34 34 34 37 39 36 31 31 33 42 27 30 32 32 32 29 26 27 27 24 25 23 24 23
30 31 31 30 28 27 26 27 27 30 31 32 31 33 32 30 32 32 32 31 31 32 34 37 36 31 30 29 41 31 30 32 29 28 28 27 28 25 20 22 26 29 27 24
25 25 26 26 26 26 28 28 28 29 29 32 35 33 30 29 31 31 31 31 32 33 33 36 31 30 30 36 34 33 32 28 26 27 27 25 25 23 22 22 27 32 29 24
24 25 26 27 26 27 29 29 30 31 35 37 33 27 29 30 30 31 30 30 31 33 35 32 30 34 34 33 37 33 28 28 26 27 25 19 18 20 22 22 27 31 27 25
26 26 26 25 25 24 24 25 27 28 31 29 25 28 28 28 29 28 28 31 31 32 31 30 33 34 32 34 31 29 30 26 26 24 18 15 14 14 15 16 20 23 24 25
22 22 22 21 21 22 21 23 25 25 26 23 24 27 28 29 29 28 29 28 28 29 26 26 30 35 30 30 31 32 28 27 26 23 19 16 17 15 14 15 15 17 20 24
15 16 17 18 19 21 23 26 26 25 24 25 26 27 28 28 27 27 26 24 25 27 24 25 30 29 30 30 31 30 31 29 28 25 22 21 20 19 19 18 18 19 22 24
16 16 17 21 20 23 29 26 25 24 24 24 26 27 27 28 28 27 28 28 28 27 29 33 35 34 35 35 34 35 35 32 30 28 27 26 25 25 25 25 26 27 28 30
16 15 17 20 24 28 28 22 24 23 24 26 28 28 27 26 25 27 27 28 28 31 35 34 33 36 36 38 40 39 38 35 33 33 33 31 31 31 31 31 33 34 34 35
16 19 22 22 23 23 23 24 25 25 25 26 25 25 26 26 25 26 26 28 33 35 33 33 34 35 37 40 42 42 40 39 37 37 37 37 36 37 37 38 38 40 40 40
13 16 19 21 19 18 22 25 25 25 26 26 26 26 27 27 27 28 30 33 34 32 32 32 35 38 39 41 44 44 43 43 42 42 43 42 41 40 40 41 43 45 45 45

GFSNW_250_spd_171.txt.gz
Wind_Speed
121 122 122 124 123 122 124 124 125 128 128 126 122 119 117 116 113 118 122 117 116 114 115 113 112 108 103 105 106 108 110 110 104 105 110 111 109 107 104 100 101 104 104 96
127 127 126 125 128 129 130 128 130 126 125 126 128 127 122 124 122 123 124 121 118 117 115 118 115 110 106 106 109 109 109 111 108 106 107 115 118 114 109 107 102 99 98 88
132 132 131 131 127 129 127 129 125 130 135 131 129 130 129 125 125 124 125 122 117 109 108 106 108 109 106 104 108 111 109 107 110 107 108 110 112 115 115 109 106 106 101 103
129 132 131 130 130 131 132 132 133 132 134 131 130 122 121 118 117 116 115 110 100 95 94 93 94 93 94 94 98 103 105 105 104 105 106 104 102 109 114 113 118 120 113 114
134 136 135 135 135 136 134 134 134 132 132 125 115 108 105 105 106 106 103 94 90 86 81 84 81 81 81 82 83 86 89 89 92 96 101 102 96 99 108 115 115 110 111 111
136 137 136 136 135 133 129 120 116 115 110 104 101 97 99 99 95 94 91 86 81 77 77 75 72 70 69 71 72 73 74 75 79 79 86 91 87 93 101 103 106 108 106 104
122 120 119 117 115 112 109 107 107 103 96 95 95 94 94 90 88 83 80 75 70 71 67 64 61 59 59 61 62 65 66 69 70 69 75 75 79 86 93 93 94 97 94 92
105 105 105 103 102 102 99 98 96 94 86 87 86 87 86 85 81 77 72 68 63 60 55 55 54 51 51 53 54 56 59 61 61 63 65 66 68 79 79 79 79 80 79 80
93 93 94 93 93 92 88 88 87 84 80 75 80 77 77 76 73 67 59 57 52 50 49 50 48 47 46 47 50 53 55 55 54 54 56 55 64 67 66 66 66 67 70 71
83 83 84 84 83 80 78 78 76 74 70 68 70 68 67 67 61 55 50 45 44 45 45 44 43 43 44 42 44 46 46 46 47 50 49 50 60 58 57 57 60 62 61 61
75 74 75 75 73 71 68 68 65 64 62 63 62 60 59 56 52 47 41 38 43 45 39 37 41 39 38 37 42 40 40 41 44 46 45 46 51 54 52 53 54 53 53 54
66 66 65 64 63 62 59 59 60 59 57 54 53 52 52 50 47 41 34 38 42 38 36 37 38 40 39 39 39 38 39 41 44 43 45 44 48 50 48 47 48 46 48 48
56 56 57 56 55 53 53 56 55 51 49 50 50 51 47 44 42 34 33 38 37 35 34 35 35 37 39 39 41 38 40 41 41 44 44 44 44 45 44 42 43 40 42 41
48 49 48 47 47 48 50 52 51 46 48 45 46 45 41 39 32 29 31 33 36 35 33 34 35 37 39 38 38 38 42 42 41 40 42 40 39 39 39 39 38 35 35 36
42 43 42 41 42 41 46 48 45 44 40 42 44 41 35 28 26 28 32 37 37 32 31 33 35 36 38 37 35 37 41 39 36 39 38 37 38 34 33 33 31 28 29 29
33 34 35 35 35 37 39 39 39 38 40 39 35 29 24 24 29 34 36 37 32 31 34 35 36 38 35 32 34 39 37 33 30 33 33 33 35 29 27 31 32 30 28 27
28 28 29 30 32 33 35 39 38 35 32 27 24 22 24 30 34 35 35 33 33 32 32 32 36 35 31 30 33 40 29 27 29 32 31 30 29 30 28 29 29 30 30 27
24 25 27 30 31 29 31 32 29 24 20 21 24 26 31 34 34 32 30 30 31 30 30 33 35 32 28 28 43 31 28 28 28 29 25 30 31 29 26 26 28 30 30 31
22 22 24 26 30 31 29 26 25 24 24 27 29 31 32 31 31 29 28 28 27 29 30 31 28 29 28 40 34 29 30 27 25 24 29 32 29 25 25 27 25 26 30 34
19 22 22 24 23 23 26 26 26 29 27 30 31 29 28 29 29 28 29 28 27 28 32 28 28 29 33 33 31 32 27 23 24 28 31 29 26 24 26 27 28 29 31 34
23 24 25 26 26 25 25 25 26 29 30 28 26 26 27 25 27 29 29 27 27 29 30 26 28 34 32 31 32 29 28 29 27 28 29 27 24 26 28 28 26 24 25 28
26 26 26 25 24 24 25 26 27 27 26 26 24 26 26 27 28 27 27 28 27 29 24 24 29 30 29 30 31 30 29 30 31 30 29 26 26 29 28 24 19 19 20 22
20 21 23 22 22 22 24 27 26 27 25 24 26 27 27 28 27 27 26 25 28 26 23 25 29 28 28 29 30 32 33 33 33 31 30 27 29 28 27 23 22 21 18 20
16 17 18 19 19 21 20 20 21 22 22 24 28 29 28 27 25 25 26 27 27 27 28 29 30 28 32 34 35 37 38 37 34 34 32 30 31 31 28 25 25 23 22 23
14 15 15 16 17 16 17 18 20 20 21 24 27 27 25 25 25 23 22 25 27 31 34 33 32 35 36 36 38 39 40 38 38 38 35 33 34 35 32 31 30 30 30 30
9 10 12 13 15 17 19 18 21 22 23 26 26 24 24 24 23 22 22 25 30 34 32 33 35 35 37 38 38 38 38 39 40 41 39 36 38 39 38 37 37 36 37 37
9 9 12 14 14 13 14 15 17 20 23 27 26 24 25 25 23 24 28 32 34 33 33 33 32 33 35 35 36 37 39 41 42 44 43 41 41 42 42 42 42 42 43 43

GFSNW_250_spd_177.txt.gz
Wind_Speed
126 124 120 121 123 119 116 110 107 107 104 101 101 101 110 107 107 106 105 102 102 101 103 102 104 105 108 109 106 106 109 108 102 101 107 109 109 108 107 106 105 103 102 92
128 124 128 126 124 123 120 117 113 111 114 109 108 112 118 113 114 112 108 107 107 107 106 106 104 105 107 111 111 111 112 111 110 105 105 106 99 96 93 94 95 94 98 93
131 127 127 128 126 125 124 126 118 114 111 114 119 119 114 110 117 112 108 108 110 111 109 108 104 106 110 116 116 117 115 109 109 102 90 87 81 79 80 83 81 84 82 83
135 133 135 134 132 133 132 130 128 118 115 117 114 113 116 113 111 115 114 111 115 114 109 110 112 113 114 116 116 119 114 102 93 89 81 79 73 69 72 72 72 77 67 74
137 141 142 143 137 138 141 129 127 126 128 119 115 113 115 123 125 118 118 116 120 117 117 118 115 116 122 117 113 105 98 93 84 78 77 76 69 62 64 67 68 70 65 65
145 144 139 139 140 139 134 136 134 133 131 121 119 125 125 121 128 126 123 122 122 123 120 118 119 115 110 101 94 92 88 85 80 70 71 69 57 57 61 62 64 62 57 61
143 142 140 141 140 139 139 137 137 137 134 131 130 127 128 128 129 128 127 122 120 123 116 116 109 105 97 89 87 84 78 76 70 63 61 53 52 54 55 57 56 58 55 55
148 150 148 146 145 144 144 144 143 145 140 137 135 132 127 124 121 120 119 119 112 109 108 101 93 89 82 82 79 74 66 62 59 54 48 44 47 53 56 53 54 58 50 49
125 126 123 123 124 123 123 124 123 122 118 122 123 119 113 109 106 105 103 102 101 99 96 91 83 78 76 72 72 63 59 54 47 43 39 39 44 50 47 47 51 51 47 45
103 105 106 105 107 108 108 105 105 105 102 101 100 98 97 94 95 92 91 90 89 88 84 79 74 68 64 63 60 55 51 45 39 40 35 37 44 46 44 44 49 45 44 42
94 95 96 97 96 95 95 96 94 93 89 87 87 87 86 85 85 84 82 81 78 74 72 65 64 57 54 55 53 48 41 37 39 37 35 37 42 43 41 41 41 40 39 38
83 85 86 86 86 86 85 86 85 81 77 76 77 78 78 79 75 71 72 71 67 65 59 55 53 49 48 48 44 42 36 38 38 36 35 37 39 40 38 36 36 36 36 35
73 74 75 76 75 74 72 73 72 68 64 63 66 71 71 66 67 64 62 62 58 55 51 50 46 44 42 40 37 40 38 38 37 36 37 37 37 35 34 32 33 32 32 33
63 65 66 65 64 62 59 62 60 55 55 54 60 62 62 60 59 56 54 52 51 49 45 41 40 39 38 35 35 39 41 39 37 36 39 32 33 33 32 32 33 32 30 31
54 54 53 51 52 51 50 53 53 52 50 47 58 56 58 54 52 49 47 48 46 42 39 37 37 37 36 35 34 40 41 38 35 37 34 33 36 34 33 33 31 30 31 30
40 43 45 45 45 42 45 49 50 48 44 44 53 52 51 47 43 43 43 44 40 36 34 33 33 38 36 33 31 42 44 38 31 34 32 35 37 32 31 33 31 30 30 31
37 38 38 37 35 37 39 43 45 39 36 41 46 46 42 38 38 41 38 36 33 31 29 32 36 37 31 26 28 51 40 31 26 32 29 34 34 32 31 30 30 30 29 28
31 30 30 31 31 32 39 47 38 31 30 37 39 37 33 34 36 33 32 29 27 30 32 37 37 32 22 25 45 44 29 23 24 25 29 32 30 30 27 25 27 28 26 28
25 27 28 28 30 36 36 27 23 22 28 27 28 28 29 29 28 29 28 27 31 35 38 36 26 25 28 43 43 31 24 21 23 28 28 30 29 25 25 25 25 25 28 31
18 19 21 22 21 23 23 21 21 20 20 24 26 22 23 26 26 30 32 34 33 33 34 28 26 30 42 40 34 26 21 20 24 28 27 27 29 26 23 24 25 29 31 33
11 14 17 18 17 16 16 18 20 22 27 29 27 26 26 27 30 32 33 33 30 30 32 26 27 38 36 27 26 26 24 26 24 27 29 30 29 28 27 27 30 33 34 33
12 14 17 19 21 22 22 23 27 28 28 29 29 28 30 31 31 30 29 25 25 29 28 25 32 33 26 22 27 27 27 27 29 31 33 32 31 30 31 32 34 34 32 33
10 13 15 18 21 25 27 27 26 24 22 23 26 27 28 27 25 24 24 24 25 25 29 33 33 30 26 25 29 29 28 29 30 32 35 34 33 32 32 34 36 35 33 34
5 4 5 10 13 14 14 15 17 20 22 24 25 25 23 23 25 25 24 25 26 28 29 30 27 28 26 28 28 30 32 32 33 34 35 34 33 32 34 35 35 34 34 34
3 1 5 8 11 14 17 19 19 19 21 22 22 21 20 20 21 22 25 27 30 30 30 28 26 27 28 30 32 35 35 34 34 34 34 33 34 36 36 36 36 35 35 35
4 2 3 6 8 10 11 13 14 15 16 17 17 18 19 19 19 22 24 28 28 27 28 27 27 29 30 30 32 32 33 33 33 34 36 36 36 36 36 36 36 36 35 35
3 2 2 3 5 6 8 9 10 13 15 15 17 20 19 18 19 24 28 30 27 28 28 28 30 31 31 31 30 32 34 36 36 38 38 40 41 40 40 40 39 39 38 37

GFSNW_250_spd_180.txt.gz
Wind_Speed
115 118 116 115 113 114 117 118 118 115 111 113 116 112 109 109 104 105 102 99 103 102 98 98 100 103 102 101 98 97 99 94 90 94 97 99 99 102 105 107 107 107 109 99
121 123 123 122 125 125 124 124 123 121 119 115 117 113 112 109 106 109 110 109 110 113 108 105 103 101 102 104 106 105 105 102 99 95 101 104 104 106 108 108 104 99 98 83
127 128 128 132 133 131 129 124 125 123 119 115 118 117 113 108 110 115 119 123 119 116 118 114 108 106 105 105 107 111 113 110 107 104 101 108 111 104 102 99 90 85 76 75
133 131 134 134 131 135 132 131 126 123 118 122 116 121 119 122 123 123 125 128 127 123 118 116 113 112 106 106 108 112 115 112 116 113 105 105 105 94 90 86 83 80 65 74
138 141 141 139 140 135 132 134 135 133 130 129 130 129 127 131 131 127 132 128 125 122 122 121 118 115 113 112 116 117 121 117 116 111 105 102 91 81 82 78 78 74 63 61
141 142 141 140 139 139 139 137 139 139 137 133 132 134 134 134 138 136 133 129 126 131 130 125 126 126 123 118 116 119 121 113 107 98 95 89 75 79 72 69 68 66 58 55
142 142 141 141 140 141 140 139 143 141 141 141 142 145 138 137 136 132 129 133 132 132 132 132 131 124 119 116 115 114 107 101 98 90 84 75 69 70 67 61 58 55 52 52
146 145 144 142 141 141 141 140 142 142 139 137 139 142 139 138 140 137 140 141 140 135 134 130 121 113 109 101 97 95 88 87 86 82 74 63 63 63 56 52 50 50 46 47
144 146 146 145 144 144 142 139 140 135 138 136 137 136 135 135 132 129 126 125 117 111 109 110 102 98 95 90 86 80 79 75 75 69 63 53 56 54 49 45 44 43 41 41
123 123 123 121 118 115 113 111 114 113 114 114 114 114 113 111 109 106 106 102 100 98 96 94 88 84 81 75 75 73 71 70 66 61 54 47 49 47 43 40 39 38 37 36
102 100 101 103 103 102 103 102 102 100 96 96 98 98 98 96 95 94 91 90 90 88 86 85 80 72 68 65 66 63 62 61 58 52 46 43 44 42 39 38 37 35 34 33
90 91 92 93 91 90 90 89 86 88 87 88 87 85 88 87 85 83 82 81 81 79 77 75 69 63 58 58 56 58 55 55 50 43 41 40 39 39 38 34 33 31 30 30
80 81 80 79 78 77 77 78 77 75 74 76 74 78 77 78 76 72 73 73 72 70 66 62 57 53 51 50 50 51 52 51 47 37 41 35 36 37 33 29 29 28 27 27
69 68 67 67 66 66 66 65 66 63 65 65 67 69 69 67 66 64 64 65 61 59 56 51 50 46 43 45 46 48 50 49 41 35 36 32 36 32 30 29 28 28 27 27
58 57 57 57 57 55 57 57 58 57 56 54 59 61 63 60 58 57 57 57 54 51 49 47 44 38 41 44 43 46 50 42 36 34 31 32 35 29 29 31 30 30 30 30
48 49 49 48 47 47 47 49 51 51 49 47 55 59 57 52 51 52 51 50 47 44 44 42 36 35 39 37 38 44 49 41 33 32 29 32 34 28 29 32 30 32 32 30
41 39 36 35 36 39 41 47 50 45 42 43 49 52 47 45 45 45 43 41 40 40 37 33 32 39 36 33 40 47 49 32 26 28 26 31 30 29 27 31 31 32 29 29
28 27 29 30 33 35 41 42 33 31 32 34 39 44 38 37 37 35 36 37 35 32 31 32 37 35 32 37 49 43 36 28 21 21 27 28 28 29 29 30 31 31 31 32
20 24 24 26 30 31 25 21 26 25 25 27 34 36 31 27 26 33 32 28 28 28 31 34 31 37 39 46 40 34 30 22 17 20 27 29 28 28 29 29 29 29 30 32
19 20 22 21 21 24 24 25 23 25 28 35 35 26 22 27 30 26 26 25 27 34 35 33 35 36 41 31 30 31 26 21 21 23 28 31 30 28 28 27 29 30 31 31
16 18 20 20 19 18 18 20 22 26 30 26 22 27 27 27 25 24 27 31 33 35 28 29 31 39 30 24 25 28 29 26 26 26 29 29 30 31 29 28 30 32 32 32
12 13 15 16 17 19 21 23 25 26 26 26 26 24 24 25 30 29 29 30 29 27 24 26 34 31 24 24 25 27 30 29 27 28 31 32 32 32 31 29 30 31 31 31
4 6 7 9 10 15 16 19 20 20 21 22 22 23 25 27 29 25 24 25 26 25 27 28 30 29 25 26 23 26 29 29 28 28 30 33 33 33 33 32 32 31 31 32
7 3 2 6 7 10 13 16 16 17 18 19 20 22 22 22 22 23 22 24 26 27 26 26 28 26 26 26 27 27 29 30 28 29 31 32 33 33 33 33 33 35 35 35
8 6 3 3 4 6 8 11 12 13 15 13 14 16 17 20 22 22 25 27 29 28 27 29 29 28 28 29 30 30 29 30 30 30 31 32 33 33 35 37 38 38 38 39
6 5 3 2 2 2 4 5 9 11 11 11 13 15 18 19 21 23 25 30 31 27 29 29 30 30 30 30 30 30 30 30 31 32 32 33 34 34 35 37 38 39 39 39
5 4 3 1 0 2 5 8 9 11 12 13 15 15 16 20 23 27 30 33 28 30 30 32 31 31 32 30 30 31 31 32 32 33 33 34 36 38 39 40 41 42 42 42